TimeEDT,TemperatureF,Dew PointF,Humidity,Sea Level PressureIn,VisibilityMPH,Wind Direction,Wind SpeedMPH,Gust SpeedMPH,PrecipitationIn,Events,Conditions,WindDirDegrees,DateUTC
12:00 AM,-16.6,-22.0,76,29.86,9.0,SSE,4.6,-,N/A,Snow,Light Snow,150,2013-04-18 04:00:00
1:00 AM,-16.6,-20.2,84,29.86,9.0,ESE,2.3,-,N/A,Snow,Light Snow,110,2013-04-18 05:00:00
2:00 AM,-15,-21,63,29.86,10,SE,3.5,,,Snow,Light Snow,140,2013-04-18 06:00:00
2:00 AM,-14.8,-20.2,77,29.85,9.0,ESE,3.5,-,N/A,Snow,Light Snow,120,2013-04-18 06:00:00
3:00 AM,-16.6,-22.0,76,29.85,9.0,SSE,5.8,-,N/A,Snow,Light Snow,160,2013-04-18 07:00:00
4:00 AM,-16.6,-23.8,70,29.84,9.0,SSE,6.9,-,N/A,Snow,Light Snow,160,2013-04-18 08:00:00
5:00 AM,-16,-23,58,29.84,10,East,3.5,,,Snow,Light Snow,80,2013-04-18 09:00:00
5:00 AM,-16.6,-22.0,76,29.84,9.0,East,3.5,-,N/A,Snow,Light Snow,90,2013-04-18 09:00:00
6:00 AM,-16.6,-23.8,70,29.83,9.0,SSE,5.8,-,N/A,Snow,Light Snow,160,2013-04-18 10:00:00
7:00 AM,-14.8,-23.8,64,29.83,9.0,SSE,8.1,-,N/A,Snow,Light Snow,150,2013-04-18 11:00:00
8:00 AM,-14,-21,55,29.82,10,South,3.5,,,Snow,Light Snow,170,2013-04-18 12:00:00
8:00 AM,-14.8,-22.0,70,29.82,9.0,South,3.5,-,N/A,Snow,Light Snow,180,2013-04-18 12:00:00
9:00 AM,-13.0,-20.2,70,29.81,9.0,SSE,6.9,-,N/A,Snow,Light Snow,150,2013-04-18 13:00:00
10:00 AM,-11.2,-20.2,64,29.81,9.0,SSW,4.6,-,N/A,Snow,Light Snow,210,2013-04-18 14:00:00
11:00 AM,-11,-19,52,29.80,10,West,2.3,,,Snow,Light Snow,280,2013-04-18 15:00:00
11:00 AM,-11.2,-18.4,70,29.80,15.0,NW,4.6,-,N/A,,Clear,320,2013-04-18 15:00:00
12:00 PM,-11.2,-18.4,70,29.79,15.0,SSW,3.5,-,N/A,,Partly Cloudy,210,2013-04-18 16:00:00
1:00 PM,-7.6,-14.8,71,29.77,15.0,SSW,3.5,-,N/A,,Partly Cloudy,210,2013-04-18 17:00:00
2:00 PM,-7,-15,55,29.76,10,SW,2.3,,,Snow,Light Snow,220,2013-04-18 18:00:00
2:00 PM,-7.6,-14.8,71,29.76,15.0,SW,2.3,-,N/A,,Partly Cloudy,230,2013-04-18 18:00:00
3:00 PM,-7.6,-14.8,71,29.75,15.0,South,3.5,-,N/A,,Partly Cloudy,190,2013-04-18 19:00:00
4:00 PM,-7.6,-13.0,77,29.75,15.0,South,4.6,-,N/A,,Partly Cloudy,190,2013-04-18 20:00:00
5:00 PM,-7,-14,60,29.75,10,South,2.3,,,Snow,Light Snow,170,2013-04-18 21:00:00
5:00 PM,-7.6,-13.0,77,29.74,20.0,South,2.3,-,N/A,,Partly Cloudy,170,2013-04-18 21:00:00
6:00 PM,-7.6,-13.0,77,29.73,20.0,Calm,Calm,-,N/A,,Partly Cloudy,0,2013-04-18 22:00:00
7:00 PM,-9.4,-14.8,77,29.73,20.0,Calm,Calm,-,N/A,,Partly Cloudy,0,2013-04-18 23:00:00
8:00 PM,-12,-17,65,29.72,10,ENE,1.2,,,Snow,Light Snow,70,2013-04-19 00:00:00
8:00 PM,-11.2,-16.6,77,29.72,9.0,Calm,Calm,-,N/A,Snow,Light Snow,0,2013-04-19 00:00:00
9:00 PM,-13.0,-20.2,70,29.70,9.0,SSE,5.8,-,N/A,Snow,Light Snow,160,2013-04-19 01:00:00
10:00 PM,-13.0,-20.2,70,29.69,9.0,SE,5.8,-,N/A,Snow,Light Snow,140,2013-04-19 02:00:00
11:00 PM,-13,-20,57,29.68,10,SSE,6.9,,,Snow,Light Snow,150,2013-04-19 03:00:00
11:00 PM,-13.0,-20.2,70,29.68,9.0,SSE,8.1,-,N/A,Snow,Light Snow,150,2013-04-19 03:00:00